sat.trackr.live / text

‹ back to catalog

MUSAT-3ALPHA

NORAD 64573 · 2025-135AX

PAYLOAD ACTIVE UNKNOWN

§ Identity

Operator
Country
US
Launch date
2025-06-23
Launch site
AFWTR
Launch vehicle
Mass (kg)
RCS (m²)

External: N2YO · Heavens-Above · Gunter

§ Orbital elements

Epoch: 2026-05-25T00:46:13.720800Z

Period
96.05 min
Inclination
97.7084°
Eccentricity
0.0002400
Mean motion
14.99183241 rev/d
Perigee alt
567.8 km
Apogee alt
571.1 km
Semi-major
6,947.6 km
B*
7.9487e-5
RAAN
259.4219°
Arg perigee
32.0349°
Mean anomaly
328.1019°
Rev number
5,045

§ Raw data

MUSAT-3ALPHA1 64573U 25135AX  26145.03210325  .00000909  00000+0  79487-4 0  99912 64573  97.7084 259.4219 0002400  32.0349 328.1019 14.99183241 50451

JSON: /api/v1/satellites/64573 · /tle

For live sub-satellite position, see the globe view (requires WebGL).

§ Visibility from observer

Set your observer location to see the next 7 days of passes ≥ 10°. The values pass through the URL so the page stays shareable.

No JS? Fill the form by hand. The geolocation button needs JavaScript.